SCP
0 0 0 0 0 0 0 0 0 0 0 0 0 0 0 0 0 0 0 0 0 0 0 0 0 0 0 0 0 0 0 0 0 0 0 0 -0 -0 -0 -0 0 0 0
0 0 0 0 0 0 0 0 0 0 0 0 0 0 0 0 0 0 0 0 0 0 0 0 0 0 0 0 0 0 0 0 0 0 0 0 -0 -0 -0 0 0 0 0
0 0 0 0 0 0 0 0 0 0 0 0 0 0 0 0 0 0 0 0 0 0 0 0 0 0 0 0 0 0 0 0 0 0 0 0 0 0 0 0 0 0 0
0 0 0 0 0 0 0 0 0 0 0 0 0 0 0 0 0 0 0 0 0 0 0 0 0 0 0 0 0 0 0 0 1 0 0 0 0 0 0 0 0 0 0
0 0 0 0 0 0 0 0 0 0 0 0 0 0 0 0 0 0 0 0 0 0 0 0 0 0 0 0 0 0 0 1 1 0 0 0 0 0 0 0 0 0 0
0 0 0 0 0 0 0 0 0 0 0 0 0 0 0 0 0 0 0 0 0 0 0 0 0 0 0 0 0 0 0 1 0 0 0 0 0 1 1 1 0 0 0
0 0 0 0 0 0 0 0 0 0 0 0 0 0 0 0 0 0 0 0 0 0 0 0 0 0 0 0 0 0 0 0 0 0 0 0 0 1 1 1 1 1 0
0 0 0 0 0 0 0 0 0 0 0 0 0 0 0 0 0 0 0 0 0 0 0 0 0 0 0 0 0 0 0 0 0 0 0 0 0 0 1 1 1 1 1
0 0 0 0 0 0 0 0 0 0 0 0 0 0 0 0 0 0 0 0 0 0 0 0 0 0 0 0 0 0 0 0 0 0 0 0 0 0 0 1 1 1 1
0 0 0 0 0 0 0 0 0 0 0 0 0 0 0 0 0 0 0 0 0 0 0 0 0 0 0 0 0 0 0 0 0 0 0 0 0 0 0 1 1 1 1
0 0 0 0 0 0 0 0 0 0 0 0 0 0 0 0 0 0 0 0 0 0 0 0 0 0 0 0 0 0 0 0 0 0 0 0 0 0 0 1 1 1 1
0 0 0 0 0 0 0 0 0 0 0 0 0 0 0 0 0 0 0 0 0 0 0 0 0 0 0 0 0 0 0 0 0 0 0 0 0 0 0 1 1 1 1
0 0 0 0 0 0 0 0 0 0 0 0 0 0 0 0 0 0 0 0 0 0 0 0 0 0 0 0 0 0 0 0 0 0 0 0 0 0 0 0 1 1 1
0 0 0 0 0 0 0 0 0 0 0 0 0 0 0 0 0 0 0 0 0 0 0 0 0 0 0 0 0 0 0 0 0 0 0 0 0 0 0 0 0 1 1
0 0 0 0 0 0 0 0 0 0 0 0 0 0 0 0 0 0 0 0 0 0 0 0 0 0 0 0 0 0 0 0 0 0 0 0 0 0 0 0 0 1 1
0 0 0 0 0 0 0 0 0 0 0 0 0 0 0 0 0 0 0 0 0 0 0 0 0 0 0 0 0 0 0 0 0 0 0 0 0 0 0 0 0 0 0
0 0 0 0 0 0 0 0 0 0 0 0 0 0 0 0 0 0 0 0 0 0 0 0 0 0 0 0 0 0 0 0 0 0 0 0 0 0 0 0 0 0 0
0 0 0 0 0 0 0 0 0 0 0 0 0 0 0 0 0 0 0 0 0 0 0 0 0 0 0 0 0 0 0 0 0 0 0 0 0 0 0 0 0 0 0
0 0 0 0 0 0 0 0 0 0 0 0 0 0 0 0 0 0 0 0 0 0 0 0 0 0 0 0 0 0 0 0 0 0 0 0 0 0 0 0 0 0 0
0 0 0 0 0 0 0 0 0 0 0 0 0 0 0 0 0 0 0 0 0 0 0 0 0 0 0 0 0 0 0 0 0 0 0 0 0 0 0 0 0 0 0
0 0 0 0 0 0 0 0 0 0 0 0 0 0 0 0 0 0 0 0 0 0 0 0 0 0 0 0 0 0 0 0 0 0 0 0 0 0 0 0 0 0 0
0 0 0 0 0 0 0 0 0 0 0 0 0 0 0 0 0 0 0 0 0 0 0 0 0 0 0 0 0 0 0 0 0 0 0 0 0 0 -0 -0 0 0 0
0 0 0 0 0 0 0 0 0 0 0 0 0 0 0 0 0 0 0 0 0 0 0 0 0 0 0 0 0 0 0 0 0 0 0 0 0 -0 -0 -0 -0 0 0
0 0 0 0 0 0 0 0 0 0 0 0 0 0 0 0 0 0 0 0 0 0 0 0 0 0 0 0 0 0 0 0 0 0 0 0 0 0 -0 -0 -0 -0 -0
0 0 0 0 0 0 0 0 0 0 0 0 0 0 0 0 0 0 0 0 0 0 0 0 0 0 0 0 0 0 0 0 0 0 0 0 0 0 0 0 -0 -0 -0
0 0 0 0 0 0 0 0 0 0 0 0 0 0 0 0 0 0 0 0 0 0 0 0 0 0 0 0 0 0 0 0 0 0 0 0 0 0 0 0 0 -0 -0
Wind_Speed
4 9 13 12 12 13 13 12 9 8 7 7 8 9 9 8 7 7 6 5 6 8 8 7 7 6 7 7 8 9 10 11 11 12 12 10 9 10 10 7 7 9 7
4 8 10 10 10 12 12 11 13 13 13 12 12 12 13 13 12 11 10 8 7 8 9 10 10 9 7 6 7 8 9 8 8 9 10 10 9 10 9 6 7 9 7
4 7 7 10 10 10 10 11 11 12 12 12 13 13 13 14 14 15 14 13 10 9 9 10 10 11 9 7 8 8 9 8 7 8 9 9 9 5 7 7 9 12 11
5 6 8 9 10 10 11 11 12 12 12 12 13 12 13 15 15 13 13 12 12 11 11 10 10 11 10 10 10 10 10 8 7 8 8 8 8 5 7 10 11 13 13
4 6 9 9 10 11 12 12 13 14 15 15 15 13 13 14 14 14 14 14 14 13 13 13 13 13 12 10 10 10 10 8 7 9 8 8 8 8 8 12 12 11 11
5 6 8 9 10 11 11 12 13 14 15 15 16 15 16 16 15 14 16 16 16 15 14 14 14 15 14 12 10 10 9 7 7 10 8 7 8 9 11 13 12 11 9
6 6 7 9 10 10 11 11 12 13 14 15 15 14 15 15 15 15 15 15 15 16 17 16 15 15 15 15 13 11 9 6 8 9 9 9 8 7 12 15 14 13 12
5 5 5 8 9 10 11 11 12 12 13 13 14 14 13 14 14 14 14 15 15 14 14 13 14 15 16 15 14 15 13 7 8 10 9 9 8 9 13 15 15 15 15
4 4 4 6 7 10 12 12 12 11 11 11 12 11 11 11 12 12 13 14 13 13 13 12 12 13 13 13 13 15 16 13 10 9 10 9 7 10 15 16 16 16 16
5 5 5 5 6 6 8 10 11 11 11 10 10 9 7 7 9 10 11 13 13 13 13 12 12 12 13 12 11 12 14 13 10 10 9 8 7 12 17 18 17 17 17
6 5 5 5 5 5 5 5 6 8 8 8 7 7 5 5 6 7 9 12 12 12 11 11 12 13 12 9 8 10 10 6 8 9 9 7 7 14 18 19 18 18 18
11 7 5 5 5 5 4 3 3 3 4 5 5 5 5 5 6 7 7 11 11 11 10 10 10 10 8 7 7 7 6 8 8 8 9 8 10 16 19 21 19 19 19
12 9 8 7 6 5 4 3 2 2 2 4 6 6 5 4 5 5 5 6 7 8 8 8 7 5 6 7 8 8 9 9 8 8 10 10 14 17 19 22 22 21 20
14 11 10 9 7 6 4 3 3 3 2 3 4 5 4 3 4 5 5 7 6 6 7 6 5 6 7 8 9 11 12 10 9 8 10 12 15 20 21 22 24 24 22
15 13 11 9 8 7 6 5 4 3 3 3 4 6 6 5 5 6 6 6 6 7 7 7 7 8 8 9 10 11 13 13 13 11 10 13 16 21 23 25 26 27 26
17 15 13 11 10 9 7 5 4 3 3 4 4 5 7 6 6 6 6 6 7 8 8 8 9 8 8 9 11 12 13 14 14 14 12 12 15 19 23 25 28 29 29
18 16 14 11 10 9 7 5 4 4 3 3 4 5 5 5 6 6 6 7 8 8 9 8 9 8 9 10 12 13 13 14 14 15 14 12 13 15 19 25 27 29 30
18 16 14 10 9 8 5 4 3 3 3 3 3 2 3 5 6 6 6 6 7 8 7 7 8 8 9 10 10 11 12 13 16 15 15 14 12 12 13 19 24 26 29
20 18 16 13 11 9 7 4 3 2 2 1 1 1 3 5 6 6 6 6 7 6 6 6 7 8 9 11 12 12 13 14 15 15 16 16 15 14 13 15 18 21 25
19 18 17 14 13 10 7 4 3 3 2 1 1 1 2 3 5 6 6 6 6 6 6 6 7 8 9 10 12 14 14 14 14 14 15 15 14 14 14 14 12 13 21
20 19 18 15 13 10 7 6 4 4 3 3 3 4 4 4 5 6 6 6 6 6 7 7 7 8 8 8 10 13 14 14 14 12 10 11 12 12 12 14 12 11 11
23 21 19 17 15 12 7 5 2 1 2 2 3 5 5 5 6 6 7 7 7 6 7 6 7 7 7 5 8 12 12 12 8 8 11 11 12 12 13 14 16 15 12
24 23 20 19 16 13 9 6 4 2 3 4 5 4 5 6 6 7 7 8 7 6 6 7 7 8 7 7 6 6 9 11 15 11 11 11 12 12 13 14 17 16 15
24 22 21 18 15 12 11 8 8 6 7 5 3 4 6 7 7 8 8 8 7 6 7 7 7 8 9 9 7 9 12 12 11 18 13 14 15 14 14 13 15 16 17
21 19 19 18 16 14 13 11 9 8 7 4 5 7 8 8 8 7 8 9 8 8 8 9 10 10 9 11 10 10 11 11 14 15 20 16 14 13 14 15 16 16 18
20 19 19 19 17 15 15 14 12 10 8 7 7 7 6 6 6 8 9 9 9 9 9 9 10 12 11 12 12 12 12 11 10 12 16 20 18 14 15 15 16 16 16
Wind_Direction
31 1 349 359 21 35 40 42 44 38 29 20 11 6 4 1 354 343 337 339 340 337 332 331 332 328 326 323 323 323 325 327 329 331 318 298 281 273 270 255 237 235 222
10 9 354 18 33 41 41 47 55 56 54 50 45 40 35 30 23 15 10 0 343 333 329 328 325 321 316 301 297 301 306 312 316 324 320 298 273 269 270 253 235 245 219
39 11 22 36 40 47 51 53 53 55 52 52 52 49 46 44 40 37 35 30 17 355 336 327 323 323 326 319 303 295 291 291 299 314 314 291 274 244 266 264 249 246 239
51 16 38 38 50 52 52 54 56 58 55 54 51 48 51 51 46 41 39 34 28 17 3 346 335 328 331 332 327 320 310 295 291 305 300 295 291 275 269 275 266 251 238
67 31 41 38 51 53 53 55 56 53 51 50 50 47 48 48 42 35 37 36 32 23 15 8 3 355 346 333 325 320 315 305 294 287 292 296 296 287 278 275 273 256 235
72 42 37 38 50 54 56 57 56 54 52 52 51 49 51 46 43 39 37 33 29 21 14 10 9 5 359 350 333 318 311 311 303 290 289 289 284 288 285 276 276 273 244
79 43 32 37 50 57 62 63 64 62 59 56 53 52 50 45 42 40 36 32 27 19 12 9 9 4 1 357 351 337 310 286 293 296 292 286 283 293 283 278 276 269 249
87 60 46 45 53 61 62 62 63 65 64 61 56 51 48 45 40 36 30 26 21 16 12 11 10 3 2 358 353 352 350 318 286 282 287 284 288 292 284 281 275 268 254
112 109 93 85 80 73 65 63 65 70 71 68 61 53 47 45 40 34 27 21 16 11 6 8 3 357 354 350 349 348 345 330 288 270 271 272 273 278 282 282 278 268 257
141 133 120 114 103 89 79 70 74 79 80 74 63 52 42 38 33 28 20 15 11 8 3 359 354 348 342 335 338 341 334 306 277 269 260 257 270 276 279 281 278 275 264
162 155 143 129 117 112 108 99 95 89 87 80 67 50 37 22 17 12 15 5 6 2 358 355 351 342 331 320 322 328 311 302 315 291 274 261 264 269 272 277 277 273 266
177 166 155 146 138 140 133 131 117 103 86 72 58 44 29 19 11 357 1 356 357 356 351 351 347 334 329 327 322 314 303 304 286 275 275 297 289 274 272 272 272 270 265
176 169 169 166 161 160 154 162 146 121 94 70 53 38 26 18 7 360 354 353 353 354 349 345 338 333 328 319 315 308 304 295 286 279 273 279 277 271 271 272 271 268 265
176 175 177 175 168 160 164 167 154 132 107 86 66 44 27 23 13 4 1 355 353 350 341 334 325 319 313 308 303 300 298 294 289 284 280 282 283 275 265 264 267 267 264
181 177 179 179 174 167 173 171 154 130 100 79 68 48 27 18 12 2 357 352 349 345 337 327 323 321 315 309 301 296 296 295 291 285 280 279 279 281 277 265 259 260 262
185 181 176 178 178 177 178 166 140 114 90 72 60 46 31 15 5 353 350 346 345 345 335 324 321 318 311 309 304 300 295 290 287 284 280 275 267 266 269 271 265 259 258
184 180 180 177 178 179 170 142 124 116 107 88 69 51 30 8 356 348 344 341 344 338 326 322 321 319 314 309 306 304 299 293 288 284 281 276 273 263 257 261 263 263 259
183 181 179 176 177 173 155 134 141 142 118 94 74 48 9 354 352 345 337 330 332 323 320 322 323 322 315 309 304 301 298 294 290 285 278 273 272 272 267 263 261 259 257
183 181 179 180 177 170 163 160 169 172 153 94 72 358 348 343 339 328 315 313 316 308 305 307 307 309 306 305 303 299 293 287 282 279 277 275 273 272 272 271 266 264 260
185 183 182 182 180 173 169 173 180 184 185 180 214 253 294 303 302 302 299 298 293 285 285 294 297 300 298 303 302 295 290 282 275 272 272 274 273 272 276 280 277 263 252
187 186 186 185 183 179 181 186 188 187 187 204 200 228 249 283 293 293 286 281 275 275 288 299 302 299 301 310 306 309 297 279 264 258 268 273 274 273 276 283 281 279 268
189 189 189 189 184 186 183 170 161 169 256 271 266 252 259 280 280 289 292 289 283 286 293 303 307 300 299 311 321 315 310 303 250 296 278 274 284 290 289 289 289 285 282
191 191 191 191 186 182 172 159 158 200 244 238 234 243 260 271 283 280 275 279 289 296 296 295 292 288 287 292 293 295 305 307 322 289 303 299 297 296 291 286 283 282 281
192 189 190 187 182 177 174 179 194 210 226 229 264 279 286 290 287 282 288 290 293 289 279 279 279 279 281 282 279 253 259 283 295 305 298 303 301 291 283 282 285 285 282
190 186 186 183 180 176 179 186 197 217 237 265 279 283 289 291 290 295 291 287 283 274 272 274 277 275 272 276 276 276 278 272 267 277 290 292 287 283 285 276 268 267 268
189 187 183 182 181 179 182 190 201 214 223 236 246 261 271 283 294 286 276 277 279 280 280 280 279 275 273 271 271 272 271 268 270 270 277 288 288 283 283 280 275 268 265